Flag for Slovenia Weather past 2 weeks in Celje, Slovenia

Now
52 °F

Cool.


Feels Like: 52 °F
Forecast: 49 / 54 °F
Wind: 2 mph from Southwest

Location: Celje

Current Time: May 22, 2015 at 7:06:56 PM

Latest Report: May 22, 2015 at 6:00 PM


Visibility: N/A

Pressure: 29.99 "Hg

Humidity: 94%

Dew point: 50 °F

Location of CeljeLocation

Historic Weather in Celje — Graph

°F

Celje temperature yesterday

Maximum temperature yesterday: 57 °F (at 12:00 AM)
Minimum temperature yesterday: 50 °F (at 8:00 AM)
Average temperature yesterday: 53 °F

Past Weeks' High & Low Weather Summary

 TemperatureHumidityPressure
High84 °F (May 13, 5:00 PM)98% (May 17, 4:00 AM)30.40 "Hg (May 17, 4:00 AM)
Low40 °F (May 12, 6:00 AM)35% (May 7, 5:00 PM)29.68 "Hg (May 19, 6:00 PM)
Average61 °F76%30.04 "Hg
* Reported May 7 5:00 PM — May 22 5:00 PM, Celje, Weather by CustomWeather, © 2015

Note: Actual official high and low records may vary slightly from our data, if they occured in-between our weather recording intervals... More about our weather records

Advertising

Celje weather history for previous 24 hours

 ConditionsComfort  
Time TempWeatherWind HumidityBarometerVisibility
5:00 PM
Fri, May 22
52 °FCool.3 mph95%30.01 "HgN/A
4:00 PM52 °FCool.2 mph94%30.02 "HgN/A
3:00 PM52 °FRain. Overcast.1 mph93%30.03 "Hg6 mi
2:00 PM52 °FLight rain. Overcast.1 mph90%30.04 "Hg7 mi
1:00 PM53 °FCool.1 mph90%30.06 "HgN/A
12:00 PM53 °FCool.1 mph91%30.07 "HgN/A
11:00 AM53 °FCool.1 mph91%30.08 "HgN/A
10:00 AM53 °FCool.1 mph92%30.09 "HgN/A
9:00 AM52 °FCool.1 mph91%30.09 "HgN/A
8:00 AM51 °FLight rain. Overcast.1 mph96%30.09 "Hg12 mi
7:00 AM51 °FLight rain. Overcast.1 mph97%30.11 "Hg9 mi
6:00 AM50 °FCool.1 mph97%30.11 "HgN/A
5:00 AM51 °FCool.1 mph96%30.10 "HgN/A
4:00 AM51 °FCool.1 mph97%30.10 "HgN/A
3:00 AM51 °FCool.1 mph97%30.11 "HgN/A
2:00 AM51 °FCool.1 mph96%30.12 "HgN/A
1:00 AM51 °FCool.1 mph97%30.13 "HgN/A
12:00 AM51 °FCool.1 mph96%30.13 "HgN/A
10:00 PM
Thu, May 21
52 °FCool.No wind95%30.14 "HgN/A
9:00 PM53 °FCool.1 mph94%30.13 "HgN/A
8:00 PM53 °FRain. Overcast.1 mph94%30.11 "Hg5 mi
7:00 PM54 °FCool.No wind90%30.10 "HgN/A
Weather by CustomWeather, © 2015

See weather overviewHow to use our weather pages